"Pseudo-MPEC" for LTKzzDH

Created 2023 Feb 24 2:22:05 UT using Find_Orb

Click here for an explanation of pseudo-MPECs

 
 Astrometry: 
     LTKzzDH &C2014 02 15G,vmf_3WThgQ1ei*u^-QqUE8iOl.vx*idiVvw\ddhO*W4F,r.7CcW84
     LTKzzDH &C2014 02 15\5,dxJaQ.*;Q;k(Q0m?_wQMw]y_uC12.NQaR88av-l7yui/BbHs9W84
     LTKzzDH &C2016 02 14vJwu0rr2]+A1\\NtY$'KpF9ihUl;ohfF=vrj.UO)g1e_9_qAiA!jW84
     LTKzzDH &C2016 02 14Zk267N_%:+vj#fxX;\yG^saVk(Ff]j!(Vk?^Pxx5uB8;uJWWJ7$bW84
     LTKzzDH &C2016 02 151??V!?B_cCA?4a$_VS4yEPtpa+txc\/)U?^Nbw7_?1NZ5FsET.xyW84
     LTKzzDH &C2016 02 158LoyWCQAZ;$iZbv`U6%@d9Ud2U@S2g1]ecXEX\48yRi_b%(CW8-iW84
     LTKzzDH &C2016 02 29mLdDvebP%Pu]gdufd%XCC;fT-NwTaTx85c-:%]ibJS76pV;(y8w@W84
     LTKzzDH &C2016 02 29l*nD^H+9FwNcQ[#VrGrCd3JtOSsAPmh5a2s/qf/onsF)PWw)yxm2W84
     LTKzzDH &C2017 10 03A;AstrometryU;]`.KuJ]H3T5C#)p$g[iRh*fT,-pbH-12Q5oyH#W84
     LTKzzDH &C2017 12 11hE[ro_9p@(8J,$X82(T450yGa4pa7NO\/!Rn:hv$d+Y=a1QQA+x)W84
     LTKzzDH &C2018 01 05?IDVwMm,OyC!BtYHtCS-yJodVF,ax5ZG37x`^*i]^38-K)[H6i!aW84
     LTKzzDH &C2018 01 058fq8r26al8t]6ZAu$X37pnxuw3C3ENn1y,)1CD$5ra%,]0;4!f\yW84
     LTKzzDH &C2018 09 09aYg_FC*O8oNDR:Av0nY6pj1fX2R:fms-RtP6IB+Qg]kb3cM[Cc\mW84
     LTKzzDH* S2018 09 22-GYf3eyYT,eN7VQY;\S(=fkjHh-^\:+;r'ar:;XYCIiN)+d]^l$^C57
     LTKzzDH  s2018 09 22DLQd.FI$LB_gnS\2%P-3arpEdK#Ho*OGn]mr;s:;bSwh@#rvd+]\C57
     LTKzzDH  S2018 09 22V\G'_IPixw^6D0QrJR3f_dT%g'U,28hBti#Z9TI7+a'*qYVueCaJC57
     LTKzzDH  s2018 09 22-p*Ow_[cRI`Lmc,,=0w#K%-C8cr#`4'm^1B5KWx#'8)N6Zs1PKj]C57
     LTKzzDH  S2018 09 22H(u_`/g.GRP\W.4ZiMdqOT+.S3aj6CE1)+tJmAVD#4,7HOdfmt+JC57
     LTKzzDH  s2018 09 22(!#pbG,,l=iRkmE2Iii7OZ:XEXl!cp]esS'u9ggV0?G#e3'.r8]2C57
     LTKzzDH  S2018 09 22p\9)(nFy+eL9GGR45/yT0sD](0@]Bjs5M)NUi9'(`OZOCNLT*FRBC57
     LTKzzDH  s2018 09 22N,RHjtl=0@smnN\aV+yQIvYuPcu\+#i]K32rPvl$i:R!.DWmw.ptC57
     LTKzzDH  S2018 09 23AF$+AajE*(J=:BG6hKY($_^f^;4[$*UEPZ*Luuq%WuBqCa,I@i'ZC57
     LTKzzDH  s2018 09 23Mmh'Slf/8CBhq9CN5?y-b`m1[\lo/`gRA@D-)6$L3Fj*:gYO`X6IC57
     LTKzzDH  S2018 09 23s)4T@'#)Aj[0ZJnp(@)(ehB,GKmYapRE*`eecH`S*#'2h/RLkq:4C57
     LTKzzDH  s2018 09 23$a_Kt!AMF%3ekQ3+*q.H5iZ$xgPD8jXp+qA%rb,Bt]gKqrUh[X$JC57
     LTKzzDH  S2018 09 23l\#3fGV%v;PrtI4'AVU%CPp5QGv!:X$'xK-T**I[VD^j%YG4^D:hC57
     LTKzzDH  s2018 09 23:)-kQ]mEpKLnwZ#[LtJT)4?=Ld1;X;Jl_q7UB=$sQ'Uo-KCXban[C57
     LTKzzDH  S2018 09 23Y@Ej[X_7(QwSB,O:0#k72aE]^W=redacted;r1\Q,[vA9[YugV(cC57
     LTKzzDH  s2018 09 232#M5oG0=^HtVIGg_RMtNo4dNcQ^l:$'mgnQ=Ryl.9Pak#\trJ^35C57
     LTKzzDH  S2018 09 24^Y)97!t^htR?l_s^muQw]B!spMwTN0ifDMY5NTtq(L6t1cXY_cVvC57
     LTKzzDH  s2018 09 24,1o_l1gVT-T'gjVuM#D=x0'0i@tyZ1e6J1GkAVxv]?@m:8tr\lplC57
     LTKzzDH  S2018 09 24MZ5m.5chNYJ9oZ6G0tg*A[BSY.#K5^a(lvE5PsnTfNIFep197;ZMC57
     LTKzzDH  s2018 09 248Pq8^vMv]/B3TWc'%qm.@nskYf\NF/fQj7iN4=JKl95$V)Nd7H2dC57
     LTKzzDH  S2018 09 249kPP?Q_`(OQq#eh'kIt^^x:T[Brsk*]^uh4o?N/!#`L[obq6/Vh#C57
     LTKzzDH  s2018 09 240JF)Ck3Z)cH2AlAvI'I*-GX6]glLkPk+M\s-e60]H+)C(SJQ]2I^C57
     LTKzzDH  S2018 09 25j_v2QH#-RHm%^f2IVvaX(j!dC%;[7?\#onTqq;I?.N#t;*7Abs2=C57
     LTKzzDH  s2018 09 25]/CRD4pps3d'+5CT.Q]exFd5gMcSDFcgSaI%Lw97$xL!,[-iggFQC57
     LTKzzDH  S2018 09 27W4X@g#@*DslCqM@dxjTI%;8(L3]:lW(Iw2GqXHnPOhnm@1]NZ=iLC57
     LTKzzDH  s2018 09 27wqRI_iQFFTD2!ok#=uR_CEY.].hw;wIG.79]m[QH*v!qX`n$t#a(C57
     LTKzzDH  S2018 09 28E;%:l(bl6SeO6)vL4y00%2[]LP;SV(xqb9cjU0[.udxXa$G:5W?!C57
     LTKzzDH  s2018 09 28mV'CL(P(d(TLu=qP'R8Vp7iWo6K^mj_`!A]M#gUgpcnk'evbq4?gC57
     LTKzzDH  S2018 09 28%.clickyODJ3kos,JnCwq1,8'p,LQKmBk2dJt=yrA3here6,$:TGC57
     LTKzzDH  s2018 09 28kKXxc9HJ@SuBFrg368aS74tJRe0V%d#qi6I-)KWI$RF$$3k:KSmcC57
     LTKzzDH  S2018 09 28gBgs-xO2b,]RB`_1p)iH)H'=9ABli_31M,K5*gBh?NXx:N()Q1QXC57
     LTKzzDH  s2018 09 28(kS%7Bd%SkeKp!V^wx#o6n@dv$oaUMj'ol#3KWY6(Ok83h6k^q',C57
     LTKzzDH  S2018 09 307E(;;iKB3%#\K'pP8)AtX23lU#7mty2=''XJ,U^fX@k9jBQscL,uC57
     LTKzzDH  s2018 09 30_R*iw7avI$W*7\kF@W$:_Do2aur74JAQ9?forhTokY'OJc@p]QNQC57
     LTKzzDH  S2018 09 30Tl6x#:7uQFrW9kEn;6'B?Q_`!B7OsEvdx8g8)ica@V-e$HU+DO6)C57
     LTKzzDH  s2018 09 305kK@DLpbJb)blFQ/lPLyoP!%5ET%(ipSokRua:EJx-pD8%`+U3^KC57
     LTKzzDH  S2018 09 30=:*S9^2B')OPt[L[Pq+NY!rK[2V6yo;=cEJ]\xdeNo9/Au_lZ3%6C57
     LTKzzDH  s2018 09 30_QqraaqV#hslv`Otexplanation$ns.2n]Kaq9f-xqXpY@BiCdcyC57
     LTKzzDH  S2018 09 30W9_`gTj7V`S'GK@gXs_7Cr1?a.*$-;=G!+e/OV+Yf=^a+=ZD.WpsC57
     LTKzzDH  s2018 09 30wW''\4vS[Q8:g1@LMTmk8.P/BNqyDjvUqW7`SEu^]vy%-?Q4sD%2C57
     LTKzzDH  S2018 10 01R/uN7mN[]J7U\(;5M6tefMjMlAb@@A,LQ'!htO$XS;g5w\%KrS69C57
     LTKzzDH  s2018 10 01ZfL!NFuJRU4#w.,!@9p-)nCbsp;c/uCO!xXHN(P]4-Zwm6q,,Y5TC57
     LTKzzDH &C2018 10 22wMrlj'A3WCf5k:qkjTZwh1j$(Pea@?dqG\d7+%ONEs_5?)iyZWd$W84
     LTKzzDH &C2018 11 176FT!.NtLFubdgolUxksq*bj3QCGc-KyTYTb(h.$Prk1A7@s(nE2VW84
     LTKzzDH &C2018 11 175ybYKf%$t826:X./Zct:u\btH?0!'i!,/Zd^svtsj-(/bLjM^ncGW84
     LTKzzDH &C2018 12 01h2@xg!Ai-+IqiBG=p7Jx@:M03To'=po)6Hq7i:Dt=o=:[0S+bTL[W84

Station data:
(C57) TESS.  Observer R. Vanderspek. Measurers J. Brown, E. Evans, E. Main,
   R.  Rios, J. Ruprecht, J. Vaillancourt, J. Varey, H. Viggh, D. Woods.
   0.10-m  f/1.4 reflector + CCD.
(W84) Cerro Tololo-DECam  (S30.169594 W70.806420)  Chile.  Observer S. Deen.
   4.0-m reflector + CCD.

Orbital elements:  LTKzzDH
   Perihelion 2016 Jun 30.50895 +/- 0.00826 TT = 12:12:53 (JD 2457570.00895)
Epoch 2018 Dec  1.0 TT = JDT 2458453.5                           AutoNEOCP
q   8.00087322 +/- 7.23e-5          (J2000 ecliptic)
H    9.68 G 0.15                    Peri.  263.89264 +/- 0.00044
                                    Node    24.99380 +/- 0.00011
e   1.0034895 +/- 6.2e-5            Incl.   78.41082 +/- 0.00008
35 of 38 observations 2014 Feb. 15-2018 Dec. 1; mean residual 6".36
Residuals in arcseconds: 
140215 W84  .19+  .03-    180922 C57  4.9+  9.7-    180928 C57( 8.7+ 20.1-)   
140215 W84  .07-  .05-    180922 C57  1.4- 13.8-    180928 C57( 5.8+ 19.4-)   
160214 W84  .24+  .03-    180922 C57  3.9+  9.2-    180928 C57  4.5+ 14.5-    
160214 W84  .04+  .09-    180922 C57  3.1- 14.6-    180930 C57( 1.4+ 18.7-)   
160215 W84  .05-  .04-    180923 C57  .74+ 14.9-    180930 C57  3.9+ 15.1-    
160215 W84  .06+  .06+    180923 C57  3.3+ 11.4-    180930 C57  .94- 13.2-    
160229 W84  .02-  .09+    180923 C57  3.2-  8.8-    180930 C57  .43- 14.8-    
160229 W84  .06+  .16+    180923 C57  2.9+  7.8-    181001 C57  3.6+  6.5-    
171003 W84  .19+  .16+    180924 C57  3.3-  6.9-    181022 W84  .31-  .59+    
171211 W84  .05-  .17+    180924 C57  6.1+ 12.4-    181117 W84  .16+  .15+    
180105 W84  .09-  .14+    180924 C57  .61+ 12.9-    181117 W84  .12+  .40+    
180105 W84  .16-  .20+    180925 C57  .45+ 14.9-    181201 W84  .18-  .31+    
180909 W84  .08+  .37+    180927 C57  3.8+ 10.2-    

Ephemerides (geocentric):
Date (UTC) HH   RA             Dec           delta  r     elong  mag " sig PA
---- --------  ------------   ------------  ------ ------ -----  --- --------
2023 02 24 02  01 27 27.552   +02 10 11.07  16.467 15.802  46.5 22.1 3.20 165
2023 02 24 03  01 27 27.899   +02 10 16.34  16.468 15.802  46.5 22.1 3.20 165
2023 02 24 04  01 27 28.246   +02 10 21.61  16.468 15.803  46.4 22.1 3.20 165
2023 02 24 05  01 27 28.593   +02 10 26.89  16.469 15.803  46.4 22.1 3.20 165
2023 02 24 06  01 27 28.940   +02 10 32.16  16.470 15.803  46.4 22.1 3.20 165
2023 02 24 07  01 27 29.288   +02 10 37.44  16.470 15.803  46.3 22.1 3.20 165
2023 02 24 08  01 27 29.636   +02 10 42.71  16.471 15.803  46.3 22.1 3.20 165
2023 02 24 09  01 27 29.984   +02 10 47.99  16.472 15.804  46.2 22.1 3.20 165
2023 02 24 10  01 27 30.333   +02 10 53.27  16.473 15.804  46.2 22.1 3.20 165
2023 02 24 11  01 27 30.682   +02 10 58.55  16.473 15.804  46.2 22.1 3.20 165
2023 02 24 12  01 27 31.031   +02 11 03.83  16.474 15.804  46.1 22.1 3.20 165
2023 02 24 13  01 27 31.380   +02 11 09.11  16.475 15.804  46.1 22.1 3.20 165
2023 02 24 14  01 27 31.730   +02 11 14.39  16.475 15.804  46.0 22.1 3.20 165
2023 02 24 15  01 27 32.080   +02 11 19.67  16.476 15.805  46.0 22.1 3.20 165
2023 02 24 16  01 27 32.430   +02 11 24.95  16.477 15.805  46.0 22.1 3.20 165
2023 02 24 17  01 27 32.781   +02 11 30.24  16.477 15.805  45.9 22.1 3.20 165
2023 02 24 18  01 27 33.132   +02 11 35.52  16.478 15.805  45.9 22.1 3.20 165
2023 02 24 19  01 27 33.483   +02 11 40.80  16.479 15.805  45.8 22.1 3.20 165
2023 02 24 20  01 27 33.834   +02 11 46.09  16.480 15.805  45.8 22.1 3.20 165
2023 02 24 21  01 27 34.186   +02 11 51.38  16.480 15.806  45.8 22.1 3.20 165
2023 02 24 22  01 27 34.537   +02 11 56.66  16.481 15.806  45.7 22.1 3.20 165
2023 02 24 23  01 27 34.890   +02 12 01.95  16.482 15.806  45.7 22.1 3.20 165
2023 02 25 00  01 27 35.242   +02 12 07.24  16.482 15.806  45.6 22.1 3.20 165
2023 02 25 01  01 27 35.595   +02 12 12.53  16.483 15.806  45.6 22.1 3.20 165
2023 02 25 02  01 27 35.948   +02 12 17.82  16.484 15.807  45.6 22.1 3.20 165
2023 02 25 03  01 27 36.301   +02 12 23.11  16.484 15.807  45.5 22.1 3.20 165
2023 02 25 04  01 27 36.654   +02 12 28.40  16.485 15.807  45.5 22.1 3.20 165
2023 02 25 05  01 27 37.008   +02 12 33.70  16.486 15.807  45.4 22.1 3.20 165
2023 02 25 06  01 27 37.362   +02 12 38.99  16.487 15.807  45.4 22.1 3.20 165
2023 02 25 07  01 27 37.716   +02 12 44.29  16.487 15.807  45.4 22.1 3.20 165
2023 02 25 08  01 27 38.071   +02 12 49.58  16.488 15.808  45.3 22.1 3.20 165
2023 02 25 09  01 27 38.426   +02 12 54.88  16.489 15.808  45.3 22.1 3.20 165
2023 02 25 10  01 27 38.781   +02 13 00.17  16.489 15.808  45.2 22.1 3.20 165
2023 02 25 11  01 27 39.136   +02 13 05.47  16.490 15.808  45.2 22.1 3.20 165
2023 02 25 12  01 27 39.492   +02 13 10.77  16.491 15.808  45.2 22.1 3.20 165
2023 02 25 13  01 27 39.848   +02 13 16.07  16.491 15.809  45.1 22.1 3.20 165
2023 02 25 14  01 27 40.204   +02 13 21.37  16.492 15.809  45.1 22.1 3.20 165
2023 02 25 15  01 27 40.561   +02 13 26.67  16.493 15.809  45.0 22.1 3.20 165
2023 02 25 16  01 27 40.917   +02 13 31.97  16.493 15.809  45.0 22.1 3.20 165
2023 02 25 17  01 27 41.274   +02 13 37.27  16.494 15.809  45.0 22.1 3.20 165
2023 02 25 18  01 27 41.632   +02 13 42.58  16.495 15.809  44.9 22.1 3.20 165
2023 02 25 19  01 27 41.989   +02 13 47.88  16.496 15.810  44.9 22.1 3.20 165
2023 02 25 20  01 27 42.347   +02 13 53.18  16.496 15.810  44.8 22.1 3.20 165
2023 02 25 21  01 27 42.705   +02 13 58.49  16.497 15.810  44.8 22.1 3.20 165
2023 02 25 22  01 27 43.063   +02 14 03.79  16.498 15.810  44.8 22.1 3.20 165
2023 02 25 23  01 27 43.422   +02 14 09.10  16.498 15.810  44.7 22.1 3.20 165
2023 02 26 00  01 27 43.781   +02 14 14.41  16.499 15.811  44.7 22.1 3.20 165
2023 02 26 01  01 27 44.140   +02 14 19.72  16.500 15.811  44.7 22.1 3.20 165